AirNav   Everest Fuels
 
 1413 users online  

33CO Melby Ranch Airstrip
San Luis, Colorado, USA

GOING TO SAN LUIS?


FAA INFORMATION EFFECTIVE 18 JUNE 2020

Location

FAA Identifier: 33CO
Lat/Long: 37-03-54.0000N 105-27-49.0000W
37-03.900000N 105-27.816667W
37.0650000,-105.4636111
(estimated)
Elevation: 8820 ft. / 2688 m (estimated)
Variation: 11E (1995)
From city: 9 miles N of SAN LUIS, CO
Time zone: UTC -6 (UTC -7 during Standard Time)
Zip code: 81152

Airport Operations

Airport use: Private use. Permission required prior to landing
Activation date: 10/1996
Control tower: no
ARTCC: DENVER CENTER
FSS: DENVER FLIGHT SERVICE STATION
Attendance: UNATNDD
Wind indicator: yes
Segmented circle: no

Airport Communications

WX AWOS-3 at N24 (17 nm S): 118.2 (575-586-2019)

Nearby radio navigation aids

VOR radial/distance  VOR name  Freq  Var
ALSr122/23.9ALAMOSA VORTAC113.9013E
TASr025/34.7TAOS VORTAC117.6013E

Airport Services

Runway Information

Runway 3/21

Dimensions: 7400 x 40 ft. / 2256 x 12 m
Surface: turf
RUNWAY 3  RUNWAY 21
Traffic pattern: leftleft

Airport Ownership and Management from official FAA records

Ownership: Privately-owned
Owner: MELBY RANCH PROPERTIES, LLC
P.O. BOX 4159
VENTURA, CA 93007
Phone 800-858-8565
Manager: ANDREA MELBY
P.O. BOX 4159
VENTURA, CO 93007
Phone 805-647-5662

Additional Remarks

FOR CD CTC DENVER ARTCC AT 303-651-4257.

Instrument Procedures

There are no published instrument procedures at 33CO.

Some nearby airports with instrument procedures:

KALS - San Luis Valley Regional Airport/Bergman Field (29 nm NW)
KSKX - Taos Regional Airport (38 nm S)
KMVI - Monte Vista Municipal Airport (39 nm NW)
KAXX - Angel Fire Airport (39 nm S)
4V1 - Spanish Peaks Airfield (50 nm NE)
 
Loc | Ops | Rwys | IFR | FBO | Links
Com | Nav | Svcs | Stats | Notes

AirBoss

 
Area around 33CO (Melby Ranch Airstrip)
 
Road maps at: MapQuest Bing Google
 
Aerial photo
WARNING: Photo may not be current or correct
Aerial photo of 33CO (Melby Ranch Airstrip)
Photo by Sparky Imeson

Do you have a better or more recent aerial photo of Melby Ranch Airstrip that you would like to share? If so, please send us your photo.

 
Sectional chart

 
Airport distance calculator
Flying to Melby Ranch Airstrip? Find the distance to fly.

From to 33CO

Sunrise and sunset
Times for 15-Jul-2020
 Local
(UTC-6)
 Zulu
(UTC)
Morning civil twilight05:2611:26
Sunrise05:5611:56
Sunset20:2002:20
Evening civil twilight20:5002:50

Current date and time
Zulu (UTC)  15-Jul-2020 18:15:11
Local (UTC-6)  15-Jul-2020 12:15:11
 
METAR
KALS 
29nm NW 
151752Z AUTO 12006KT 10SM CLR 26/05 A3033 RMK AO2 SLP168 T02610050 10261 20100 58003
KVTP 
30nm NE 
151754Z AUTO 30008KT 250V320 10SM CLR 20/03 A3055 RMK AO2 TSNO
KSKX 
38nm S 
151756Z AUTO VRB05KT 10SM CLR 27/06 A3033 RMK AO2 SLP185 T02720061 10278 20133 58006
TAF
KALS 
29nm NW 
151721Z 1518/1618 16007KT P6SM FEW100 SCT200 FM151900 22012KT P6SM VCTS SCT080CB BKN140 FM152200 01010G20KT P6SM VCTS SCT080CB BKN140 FM160300 VRB04KT P6SM SCT100 BKN200
NOTAMs
Click for the latest NOTAMs
NOTAMs are issued by the DoD/FAA and will open in a separate window not controlled by AirNav.

 

 
 

Would you like to see your business listed on this page?

 If your business provides an interesting product or service to pilots, flight crews, aircraft, or users of the Melby Ranch Airstrip, you should consider listing it here.  To start the listing process, click on the button below
 
Add a business
 

Other Pages about Melby Ranch Airstrip

www.melbyranch.com/air.htm
 
Update a link
 
Copyright © AirNav, LLC. All rights reserved. Privacy Policy  Contact